SP9MLI-1 Weather Reports


time (UTC)temp
F
wind
direction
speed
knots
gust
knots
rain 1hr
in
rain 24hr
in
rain mn
in
humidity
%
barometer
mb
20260504080813 66 181 0.0 0.0 0.00 0.00 0.00 70 1010.9
20260504045313 63 181 0.0 0.0 0.00 0.00 0.00 62 1009.9
20260504043813 53 189 0.0 0.0 0.00 0.00 0.00 70 1008.6
20260504042313 53 189 0.0 0.0 0.00 0.00 0.00 70 1008.6
20260504040814 53 189 0.0 0.0 0.00 0.00 0.00 70 1008.6
20260504035313 53 189 0.0 0.0 0.00 0.00 0.00 70 1008.6
20260504033813 51 196 0.0 0.0 0.00 0.00 0.00 74 1008.6
20260504032314 50 163 0.0 0.0 0.00 0.00 0.00 86 1008.2
20260504030814 50 184 0.0 0.0 0.00 0.00 0.00 87 1008.6
20260504025313 50 168 0.0 0.0 0.00 0.00 0.00 88 1008.6
20260504023813 50 194 0.0 0.0 0.00 0.00 0.00 87 1008.2
20260504022313 49 199 0.0 0.0 0.00 0.00 0.00 87 1008.6
20260504020814 49 222 0.0 0.0 0.00 0.00 0.00 91 1008.2
20260504015313 49 203 0.0 0.0 0.00 0.00 0.00 92 1008.6
20260504013813 49 189 0.0 0.0 0.00 0.00 0.00 93 1008.6
20260504012313 49 172 0.0 0.0 0.00 0.00 0.00 92 1008.6
20260504010813 50 172 0.0 0.0 0.00 0.00 0.00 91 1008.9
20260504005313 51 181 0.0 0.0 0.00 0.00 0.00 88 1009.9
20260504003815 51 181 0.0 0.0 0.00 0.00 0.00 88 1009.9
20260504002315 51 181 0.0 0.0 0.00 0.00 0.00 88 1009.9
20260504000814 51 181 0.0 0.0 0.00 0.00 0.00 88 1009.9
20260503235314 52 181 0.0 0.0 0.00 0.00 0.00 88 1009.9
20260503232314 57 162 0.0 0.0 0.00 0.00 0.00 82 1010.9
20260503230815 57 162 0.0 0.0 0.00 0.00 0.00 82 1010.9
20260503225314 57 162 0.0 0.0 0.00 0.00 0.00 82 1010.9
20260503223814 57 162 0.0 0.0 0.00 0.00 0.00 82 1010.9
20260503222314 57 190 0.0 0.0 0.00 0.00 0.00 80 1011.3
20260503220814 57 168 0.0 0.0 0.00 0.00 0.00 81 1011.3
20260503215314 57 173 0.0 0.0 0.00 0.00 0.00 80 1011.6
20260503213814 57 173 0.0 0.0 0.00 0.00 0.00 80 1011.6
20260503212314 57 172 0.0 0.0 0.00 0.00 0.00 79 1012.0
20260503210814 57 173 0.0 0.0 0.00 0.00 0.00 77 1012.0
20260503205314 56 173 0.0 0.0 0.00 0.00 0.00 78 1012.3
20260503203814 57 176 0.0 0.0 0.00 0.00 0.00 78 1012.0
20260503202316 57 176 0.0 0.0 0.00 0.00 0.00 77 1012.0
20260503200815 57 174 0.0 0.0 0.00 0.00 0.00 76 1012.0
20260503195409 58 175 0.0 0.0 0.00 0.00 0.00 75 1012.0
20260503195315 58 175 0.0 0.0 0.00 0.00 0.00 75 1012.0
20260503193815 59 175 0.0 0.0 0.00 0.00 0.00 74 1012.3
20260503192315 60 175 0.0 0.0 0.00 0.00 0.00 73 1012.3
20260503190815 61 175 0.0 0.0 0.00 0.00 0.00 72 1012.3
20260503185315 63 175 0.0 0.0 0.00 0.00 0.00 70 1012.3
20260503183818 64 175 0.0 0.0 0.00 0.00 0.00 67 1012.6
20260503182321 73 173 0.0 0.0 0.00 0.00 0.00 53 1013.0
20260503180817 73 173 0.0 0.0 0.00 0.00 0.00 53 1013.0
20260503175314 73 173 0.0 0.0 0.00 0.00 0.00 53 1013.0
20260503173815 73 173 0.0 0.0 0.00 0.00 0.00 53 1013.0
20260503172315 73 173 0.0 0.0 0.00 0.00 0.00 51 1013.0
20260503170814 74 170 0.0 0.0 0.00 0.00 0.00 50 1013.0
20260503150814 86 235 0.0 2.6 0.00 0.00 0.00 30 1013.7
20260503130814 85 221 0.0 0.0 0.00 0.00 0.00 32 1015.4